Theta_e
308 309 309 309 309 309 309 308 309 310 310 311 312 313 313 312 313 313 314 316 314 315 317 315 318 316 326 351 341 330 338 340 342 343 341 341 339 338 338 339 341 343 344 343 341 342 342 342 341 341 342 342 342 342 342 341 339 338 337 337 336 336 335 334 335 334 333 335 336 336 336 336 336 334 331 327 329 335 338 336 332 331 331 333 333 332
308 309 309 308 310 310 309 310 310 310 309 309 311 311 312 311 312 313 313 315 314 314 316 316 318 314 324 344 338 331 337 340 341 342 341 341 339 338 338 337 340 342 342 341 341 341 341 342 341 341 342 342 342 341 341 341 338 336 337 337 337 336 336 336 335 334 333 333 335 336 336 336 335 331 328 328 333 336 336 334 332 331 331 331 331 331
308 309 309 309 312 312 310 310 310 310 310 309 310 310 312 313 312 312 313 314 313 314 317 316 315 315 327 339 336 333 335 337 339 340 340 340 339 339 338 337 340 340 340 340 340 340 340 341 341 341 342 341 341 341 341 341 338 337 337 338 337 337 337 336 335 335 333 333 334 333 331 331 330 327 329 333 336 336 336 335 332 331 331 331 331 332
309 309 309 310 312 312 310 309 310 310 310 310 310 310 312 313 312 313 314 314 312 315 318 318 316 324 336 339 336 333 333 334 337 339 339 339 339 339 339 340 342 339 339 340 341 341 341 340 341 342 341 342 341 341 341 340 339 338 338 338 337 336 337 336 336 335 333 332 333 329 327 328 327 329 334 337 337 337 336 334 332 331 331 331 332 334
309 309 308 309 311 312 310 309 309 310 310 310 310 310 311 311 312 314 314 315 317 317 317 317 316 323 337 343 341 336 334 334 334 336 338 338 339 339 338 340 339 339 339 339 341 342 342 342 341 341 341 342 342 342 341 339 337 338 338 338 337 336 336 335 335 333 332 331 329 327 330 332 332 334 337 337 337 336 335 333 333 332 331 331 333 334
308 308 308 309 311 311 310 309 308 309 310 310 310 310 310 311 312 312 313 318 321 319 316 315 312 317 333 341 343 339 336 336 334 334 336 336 337 338 338 338 336 337 339 338 340 342 343 342 341 341 341 341 341 341 341 338 336 338 339 338 337 337 335 334 333 332 333 331 326 328 333 336 336 337 337 336 335 334 333 333 333 332 332 333 333 333
307 307 308 310 310 310 311 310 308 309 310 310 311 310 310 311 312 311 312 316 319 317 315 313 313 319 333 338 340 340 338 337 335 334 335 335 336 336 336 337 335 336 338 339 340 342 342 342 341 341 341 340 341 341 341 339 338 339 338 337 337 336 335 334 333 333 334 331 327 330 334 336 337 336 336 335 334 333 333 333 333 333 333 333 333 331
308 308 308 309 309 310 310 311 309 309 309 310 312 311 310 311 311 311 311 314 317 317 315 315 314 317 330 339 339 339 338 337 336 335 335 335 335 336 336 336 335 336 339 341 341 341 342 342 341 341 340 339 340 341 341 340 339 338 337 337 336 336 335 335 334 334 334 330 329 331 333 335 337 336 335 334 333 333 333 333 333 333 333 332 331 328
308 308 308 308 309 309 310 311 310 308 309 311 312 312 311 310 310 312 312 313 316 315 313 318 317 315 329 339 337 338 339 338 338 336 336 336 334 335 336 336 336 336 339 340 340 340 341 340 339 340 339 339 340 341 340 339 339 338 337 336 336 336 336 335 335 335 332 329 330 332 333 335 336 336 334 333 333 333 333 333 333 333 333 332 329 325
308 308 308 308 309 309 310 311 310 309 309 310 311 313 312 311 312 313 313 313 314 314 313 316 316 315 328 340 339 340 341 339 338 336 335 335 335 335 335 336 336 336 337 338 337 337 338 338 338 339 339 339 340 340 339 338 338 337 337 337 336 336 335 335 335 334 330 328 332 334 335 336 336 335 334 333 333 333 333 334 334 334 333 331 328 324
308 309 309 308 309 309 311 311 309 309 310 310 311 311 310 313 314 313 317 315 312 316 317 314 316 316 323 337 341 341 342 340 337 337 334 334 335 334 335 335 335 336 335 335 336 336 336 336 336 337 338 339 339 340 339 338 337 337 337 336 336 335 335 335 334 331 329 330 334 336 336 336 335 334 333 333 333 333 333 334 334 333 332 329 325 322
307 309 309 309 309 310 311 310 309 309 310 310 311 310 311 316 315 311 315 315 312 317 319 315 316 316 317 332 341 338 339 340 337 337 335 333 334 334 334 335 335 335 335 335 335 335 336 336 336 336 337 337 338 339 338 337 336 336 336 335 335 335 334 333 330 327 329 333 335 337 337 336 335 334 333 333 333 332 332 332 333 332 330 327 323 320
307 308 309 310 310 310 310 311 310 310 310 310 312 312 312 315 314 311 313 317 317 318 320 319 316 314 317 327 338 337 337 339 337 336 334 333 334 334 334 334 334 335 335 335 336 336 336 336 336 336 336 337 337 337 337 336 337 336 336 335 333 331 330 329 328 329 331 335 336 336 336 336 336 334 333 332 332 332 332 332 332 331 329 325 322 319
307 308 309 310 311 310 310 310 310 310 309 308 311 312 312 313 312 312 314 317 319 318 319 320 315 315 318 320 327 334 336 336 335 334 334 333 334 334 334 334 334 334 334 335 336 336 336 336 336 336 336 336 337 337 336 336 337 336 336 334 329 326 326 328 332 333 334 336 336 336 337 336 334 333 333 332 332 332 331 331 331 330 328 324 321 319
309 310 310 309 310 310 310 310 311 312 310 308 311 312 313 316 317 317 318 317 317 318 318 315 315 319 318 318 326 330 332 334 334 334 334 333 334 335 335 334 334 334 334 336 336 336 336 336 336 336 336 336 336 337 337 337 336 336 335 332 328 328 330 333 334 335 336 337 336 336 337 335 333 332 333 333 332 331 330 330 330 329 327 324 321 319
308 310 311 309 310 310 310 310 310 312 311 309 311 312 312 317 320 319 321 324 321 318 317 316 319 324 321 324 331 332 334 336 334 334 334 334 334 334 334 334 334 334 335 336 337 336 336 336 336 337 336 336 336 336 337 337 336 336 335 332 330 331 334 335 335 336 336 336 336 336 335 334 332 332 333 333 332 331 330 330 330 329 327 325 323 320
309 312 313 309 310 310 309 311 310 312 314 311 310 312 312 315 317 315 316 322 321 315 320 320 318 321 320 324 334 337 340 339 335 335 334 333 335 334 334 335 334 334 335 337 337 336 336 336 335 336 336 336 337 336 337 336 336 336 335 332 331 333 335 335 335 336 336 335 335 335 334 333 332 332 333 332 331 330 330 330 329 328 327 326 323 320
313 314 315 310 310 310 309 311 310 311 314 312 310 311 312 311 317 321 320 321 320 317 322 321 314 317 319 324 336 339 340 338 336 336 334 333 335 334 334 334 334 334 335 336 338 336 336 336 335 335 336 336 337 337 336 336 336 335 334 333 332 335 336 334 334 335 336 334 334 334 333 332 332 333 332 331 330 330 331 330 329 328 327 325 321 320
313 313 314 311 310 311 309 310 311 310 311 312 312 311 314 315 317 321 321 320 320 317 318 318 316 319 321 328 342 343 338 337 336 335 335 334 334 334 333 334 334 334 335 336 337 337 335 335 335 336 336 336 336 336 336 336 335 335 334 333 333 335 336 335 335 335 335 334 334 333 332 332 332 332 332 331 331 331 331 330 329 328 327 323 320 320
313 314 314 311 311 311 309 310 311 310 310 311 312 310 313 319 319 317 318 320 320 320 322 320 317 321 325 334 348 347 336 335 336 335 335 334 333 334 333 333 334 334 335 335 336 337 336 335 336 337 337 336 336 336 335 336 335 335 335 334 334 335 336 336 336 336 335 334 334 333 332 332 332 332 332 331 332 331 330 330 328 328 326 322 320 320
311 314 314 310 311 311 310 311 310 311 311 310 311 311 311 313 315 316 317 317 318 323 327 323 319 328 336 337 345 346 335 333 335 334 334 333 333 334 333 333 333 333 334 335 335 336 336 335 335 337 337 336 337 337 336 336 336 336 336 334 335 336 337 337 336 335 335 334 334 333 332 332 332 332 332 332 331 331 330 329 328 327 324 321 320 319
311 316 320 315 310 310 311 311 311 311 311 310 312 314 314 312 315 317 315 315 320 324 326 324 324 333 337 331 335 339 334 333 335 333 333 333 332 333 333 333 333 333 334 334 334 336 337 336 335 336 337 336 338 338 336 335 335 335 335 335 335 336 336 336 336 335 335 334 333 333 332 332 332 332 332 332 331 330 329 328 328 326 323 320 320 319
311 314 319 316 311 311 312 312 313 312 311 312 312 314 315 315 318 320 321 321 319 317 320 321 322 333 338 332 331 334 332 333 333 332 333 332 332 333 332 333 333 333 334 333 334 335 337 336 335 335 336 336 338 338 335 335 335 334 335 335 335 336 336 336 335 334 334 334 333 333 333 333 332 332 332 331 330 329 329 328 327 325 321 320 319 318
311 312 313 314 312 312 312 311 312 311 311 311 312 312 312 316 321 329 336 331 318 316 319 315 317 334 344 336 332 332 330 332 332 332 332 331 332 333 332 333 334 333 334 334 334 335 336 337 335 335 335 335 337 338 335 335 337 335 334 335 336 335 335 335 334 334 334 334 334 333 333 333 332 331 330 330 329 328 328 327 325 323 320 319 319 318
313 317 314 313 313 312 312 312 310 310 312 315 318 314 311 317 320 324 329 323 316 320 322 318 320 332 338 333 330 330 332 334 332 331 333 331 331 333 332 333 333 333 334 335 335 336 336 336 336 336 337 335 336 337 335 335 337 336 334 335 336 335 334 334 333 333 334 334 334 333 332 331 330 330 329 329 328 327 327 325 323 321 320 319 319 318
316 320 317 316 317 314 314 314 312 313 312 316 320 314 311 315 315 318 322 317 317 320 319 322 330 333 337 337 333 332 335 337 334 331 332 332 331 332 332 333 333 334 334 335 336 336 335 336 336 337 338 336 336 336 336 336 336 334 334 335 336 335 334 333 332 333 334 334 333 333 331 330 330 329 328 327 327 326 324 323 321 320 320 319 318 318
317 319 320 322 319 316 318 315 313 315 314 314 315 312 312 315 315 321 323 319 324 323 319 329 337 334 339 341 336 335 336 337 336 334 331 331 332 331 332 333 333 333 334 335 337 336 336 336 337 337 337 337 337 336 335 336 336 334 334 335 335 334 333 332 331 332 333 333 333 332 331 330 329 328 327 326 324 323 322 321 320 320 320 319 319 318
314 316 321 323 317 317 322 317 313 314 315 315 316 314 315 318 318 319 321 324 326 321 322 336 338 332 338 342 337 336 337 335 336 333 331 332 332 331 332 333 332 333 335 336 337 337 336 336 336 336 336 337 337 336 335 335 335 334 334 335 335 334 333 332 331 332 333 333 332 331 330 329 328 326 325 324 322 321 320 320 320 320 319 319 319 319
315 317 321 319 315 317 320 316 314 315 315 316 320 318 316 320 320 316 323 333 326 316 326 338 334 335 344 344 336 333 333 334 333 332 332 332 332 332 332 332 333 334 335 336 337 336 335 335 336 336 336 336 337 336 334 334 334 335 334 334 335 334 333 332 331 332 333 332 332 331 329 328 326 324 323 321 320 320 320 320 319 319 319 319 319 319
318 322 323 319 319 321 321 317 314 314 314 314 319 323 321 323 324 320 329 335 323 320 335 338 333 338 340 337 334 331 329 331 331 331 333 333 333 333 333 333 333 334 336 337 336 336 335 335 336 336 336 336 335 335 335 334 334 335 334 334 335 335 334 333 332 332 332 332 331 329 328 326 324 323 322 320 320 320 319 319 319 319 319 319 318 318
316 323 327 327 326 322 322 322 316 314 317 315 318 325 325 323 320 318 325 327 319 322 335 333 331 337 335 331 333 330 328 331 332 332 334 333 334 334 333 334 334 334 335 336 335 335 335 336 336 335 335 335 334 334 335 335 336 335 335 334 334 335 334 333 332 332 332 331 329 328 326 324 323 322 321 319 319 319 319 319 319 318 318 318 318 318
317 320 324 330 328 319 321 325 319 318 320 315 315 322 325 324 320 317 322 326 323 327 332 329 330 337 337 333 333 331 330 333 332 331 333 334 335 334 334 335 335 335 335 334 334 335 335 336 335 334 334 335 335 335 335 335 336 335 334 334 334 334 334 332 332 331 331 330 328 326 325 323 322 321 320 319 319 318 318 318 318 318 318 318 318 318
319 319 317 325 326 317 319 324 321 319 318 315 320 326 325 325 322 318 319 322 325 330 333 330 330 335 338 335 337 337 336 335 332 331 333 334 335 335 335 335 335 335 335 334 333 334 334 336 335 334 334 335 336 336 335 335 335 335 334 333 333 333 333 332 331 331 330 329 327 325 324 322 321 320 319 319 318 318 318 318 318 318 318 317 317 317
319 319 317 327 331 318 317 323 319 317 318 320 328 331 327 325 323 319 319 321 322 326 331 334 334 334 335 337 340 339 336 335 333 332 334 335 335 335 335 336 336 335 334 334 333 333 334 335 335 335 335 335 336 336 336 335 335 334 333 333 332 332 331 331 330 330 329 328 326 325 323 321 320 319 318 319 318 318 318 318 318 317 317 317 317 316
320 321 319 328 332 322 321 324 318 317 324 327 328 327 326 328 329 326 324 324 325 324 327 337 345 341 335 334 334 332 331 332 332 332 334 334 334 336 336 336 336 335 335 335 333 334 334 335 335 335 335 336 336 336 336 335 334 334 333 332 332 331 330 331 330 330 329 327 325 323 321 320 319 318 318 318 317 317 317 317 317 317 316 316 316 315
322 325 323 324 323 321 325 328 322 322 326 328 327 325 324 323 322 321 319 319 326 328 328 335 343 339 330 327 329 330 330 331 332 332 334 334 334 336 336 335 336 335 334 334 333 333 334 334 334 334 335 336 336 335 335 335 334 333 333 332 331 330 331 331 331 330 328 326 325 323 321 319 318 318 317 317 317 317 317 317 317 317 316 316 315 314
323 328 328 324 319 322 329 328 324 324 325 327 328 326 324 320 319 324 323 319 324 327 328 331 332 330 329 327 328 331 331 332 335 333 332 334 335 335 336 335 335 334 334 334 333 333 333 333 333 332 334 335 335 335 335 334 333 332 332 332 331 331 331 331 330 330 329 327 326 324 321 319 318 318 317 317 317 317 317 317 316 316 316 315 315 313
321 324 327 325 319 324 332 327 323 324 325 328 331 327 323 320 322 328 327 322 325 325 324 329 331 330 332 330 328 331 332 337 342 338 333 334 334 334 336 335 335 335 334 334 334 334 334 334 332 331 333 334 334 334 334 333 333 332 331 332 331 331 331 330 330 330 329 328 326 322 321 320 319 318 317 317 316 317 317 316 316 316 316 315 314 313
320 324 331 331 322 326 337 332 323 323 324 326 330 327 321 318 320 322 320 323 329 323 319 326 329 328 330 330 329 331 336 343 347 338 332 334 335 334 335 335 335 335 334 334 335 334 335 335 333 331 332 333 334 334 333 333 333 332 331 331 331 331 330 330 330 330 329 327 325 322 320 319 318 318 317 316 316 316 316 316 315 315 315 314 314 312
322 326 331 330 322 326 336 330 320 322 324 322 324 325 320 316 316 316 319 327 328 321 320 325 326 325 327 328 329 333 337 342 342 333 329 333 334 334 335 335 335 335 334 334 334 334 334 334 332 330 331 332 333 333 333 333 332 332 331 331 331 330 330 330 330 328 326 326 324 321 319 318 317 317 317 316 316 315 315 315 315 315 315 314 314 311
320 323 325 326 323 325 332 326 318 322 326 322 322 322 318 316 317 320 328 330 324 321 324 324 323 326 327 328 331 333 332 330 328 326 328 333 333 334 335 335 334 334 334 334 334 333 334 333 331 330 330 331 332 332 332 332 332 332 331 331 331 331 330 329 328 326 325 324 321 319 317 316 316 316 316 316 315 315 315 315 315 315 314 314 314 310
318 318 319 321 318 319 327 327 320 322 324 320 321 321 317 318 324 327 328 326 323 324 326 324 324 328 329 329 331 330 327 324 324 325 328 331 333 334 334 334 334 334 333 333 333 333 333 333 331 330 329 330 330 331 331 332 331 331 331 331 331 330 329 328 326 325 325 323 320 318 316 315 316 316 315 316 315 315 315 315 315 315 314 314 313 309
316 316 317 317 313 316 325 325 321 324 325 320 321 324 321 323 328 326 323 325 326 326 324 323 326 329 330 330 329 327 325 325 325 327 329 331 333 333 333 334 333 333 333 333 332 332 333 333 332 330 329 329 330 330 330 331 331 331 330 329 328 326 326 326 325 325 324 322 319 318 316 315 316 316 316 316 316 315 315 315 315 315 314 314 312 307
314 317 320 318 316 320 325 322 319 323 323 319 322 326 324 324 325 324 324 325 326 326 323 324 326 329 330 330 329 328 326 325 328 329 330 332 333 333 334 334 333 333 333 332 332 332 332 332 332 331 330 329 329 329 329 330 330 330 329 327 325 323 323 325 325 325 322 319 318 318 316 315 316 316 316 316 316 315 315 315 315 314 314 313 310 304
316 317 321 321 319 320 323 322 321 320 320 319 322 323 323 324 325 326 326 325 326 326 325 324 326 329 331 330 329 328 326 326 330 332 331 333 334 334 335 334 333 333 332 331 332 332 332 332 332 331 331 330 329 329 328 328 329 329 329 328 326 324 324 324 324 322 319 318 317 316 316 316 315 315 315 316 315 315 315 315 315 314 313 312 308 301
316 315 318 323 323 320 321 322 321 320 320 321 322 322 324 326 326 326 326 325 325 326 326 326 327 328 330 330 329 327 325 327 331 333 333 334 335 334 334 334 332 332 332 331 331 331 331 331 331 330 330 329 328 328 327 327 328 328 328 328 326 324 323 324 323 320 317 317 317 316 316 316 315 315 315 315 315 316 315 315 314 313 313 311 306 299
318 316 320 325 324 324 326 325 322 321 321 321 322 323 324 325 325 325 326 325 325 326 327 328 327 327 328 329 327 326 326 328 331 333 333 333 333 333 333 332 332 332 331 331 331 331 331 331 330 330 329 328 328 327 327 326 325 324 324 325 324 323 323 323 322 318 316 316 316 316 316 315 314 315 315 315 316 316 315 315 314 313 313 311 305 299
317 318 322 325 324 324 326 323 320 321 321 321 323 324 323 324 325 324 324 325 325 325 326 327 328 328 328 327 327 326 327 329 331 331 331 332 332 332 332 331 331 332 331 331 331 332 331 331 331 330 329 329 329 328 327 325 323 321 322 323 323 322 322 322 320 318 317 317 316 316 315 315 314 315 316 315 316 315 314 314 313 312 312 311 305 298
318 319 321 323 323 323 323 321 320 322 323 321 322 322 322 323 324 323 324 325 325 325 325 325 327 328 328 328 328 327 328 330 331 330 331 331 331 331 331 331 332 332 332 332 331 331 331 331 330 330 330 330 329 328 327 325 322 322 322 323 323 323 322 320 319 318 317 317 316 315 315 315 315 316 316 316 315 315 314 313 312 312 312 310 304 298
321 322 320 322 326 327 326 324 323 326 326 322 320 321 321 322 323 323 323 324 324 324 325 324 324 326 328 329 329 329 328 330 330 331 331 330 329 328 329 331 332 332 332 331 331 330 330 330 330 330 329 328 328 328 327 326 324 323 323 322 322 321 320 319 318 317 317 316 316 316 316 316 316 316 316 316 315 314 314 313 312 311 310 307 302 297
320 320 320 324 328 327 324 322 320 322 323 319 318 320 320 321 322 323 322 322 323 323 324 324 324 324 326 327 329 329 329 329 330 331 331 329 328 328 329 330 331 331 330 330 330 329 329 329 329 328 328 327 327 327 328 327 325 324 323 322 321 319 318 318 317 317 316 316 316 316 316 316 316 316 316 315 314 314 314 312 312 311 308 303 300 297
Wind_Speed
11 5 6 9 8 9 9 8 7 3 4 7 5 3 4 4 4 4 4 7 3 5 4 6 7 7 7 7 3 10 17 18 22 22 20 22 25 27 29 31 34 36 35 33 35 38 38 38 36 35 34 31 30 30 31 30 29 30 30 29 28 26 25 25 26 25 23 23 23 24 23 23 21 20 18 16 15 15 15 14 13 12 10 9 9 11
10 9 8 7 6 8 8 8 8 7 6 4 4 3 4 4 4 4 4 6 1 3 4 4 6 8 7 6 4 10 12 13 20 20 19 23 24 26 29 30 32 34 33 33 35 36 35 37 37 37 37 36 34 33 34 33 30 29 30 29 27 27 27 26 26 25 24 25 25 25 25 25 22 19 17 16 15 15 16 15 13 11 9 9 10 12
8 8 6 6 5 7 7 8 9 9 8 5 3 3 3 4 3 4 5 4 0 3 4 3 6 7 4 3 4 8 7 11 26 30 29 31 27 26 29 31 34 34 33 35 36 35 35 37 38 39 40 39 36 34 34 34 31 31 31 30 29 29 28 27 26 25 25 25 24 23 23 22 21 19 18 16 16 16 16 14 11 9 8 9 11 12
6 6 7 7 6 7 6 8 10 8 6 5 4 3 3 3 2 2 4 4 1 3 2 3 3 5 3 3 2 6 5 7 18 24 28 33 32 32 34 36 38 37 36 37 36 36 37 38 39 40 41 40 37 36 37 36 34 34 34 33 32 31 29 28 27 26 25 25 24 21 20 20 19 18 18 17 17 17 15 12 9 8 9 11 12 12
4 3 10 9 6 8 6 7 10 7 5 4 4 5 4 3 3 3 3 3 3 2 2 4 2 5 1 3 3 5 3 5 9 12 17 23 27 28 29 33 36 37 40 40 39 38 39 40 41 41 40 38 38 40 39 37 35 35 35 35 33 31 30 29 28 27 26 24 23 22 21 19 19 19 20 19 18 17 14 12 10 10 11 12 12 13
5 5 12 12 8 8 7 6 9 8 5 4 4 6 6 5 5 3 2 3 5 4 2 3 1 6 3 5 6 3 3 6 6 8 13 17 21 24 27 30 32 34 37 39 41 41 41 41 41 40 39 38 39 41 41 38 36 36 37 35 33 31 31 29 27 26 25 23 24 24 22 21 21 22 21 21 20 17 14 12 12 11 11 12 12 13
4 7 9 12 10 9 8 6 7 9 6 4 5 8 8 6 5 3 0 2 3 2 4 3 5 5 4 4 6 4 4 5 5 7 11 15 20 25 28 30 32 35 37 38 40 41 41 41 41 40 38 38 40 41 41 39 37 36 35 33 33 32 31 28 26 25 24 24 24 23 21 21 22 22 21 20 18 16 14 13 12 11 11 11 12 12
7 9 9 11 12 9 9 6 6 9 7 3 5 9 9 8 6 4 3 1 2 2 4 1 4 2 4 5 4 4 4 4 6 9 10 13 18 23 28 31 35 39 40 40 40 40 41 41 40 40 38 38 40 41 40 38 36 35 33 32 33 32 30 28 27 25 24 25 24 23 21 20 20 21 21 19 17 16 15 14 13 12 11 11 11 10
8 12 9 11 12 8 7 6 7 10 6 4 6 8 9 8 7 5 4 3 2 1 5 4 3 2 5 4 2 5 5 6 10 12 12 14 19 23 27 30 34 37 39 40 40 39 40 39 37 37 37 38 39 40 39 37 35 34 32 32 32 31 31 29 28 26 25 25 25 23 22 21 21 21 20 18 17 17 16 15 14 13 11 10 9 9
6 13 11 9 9 7 6 5 7 10 5 4 6 6 4 4 5 5 5 4 1 1 6 6 3 3 4 3 4 4 6 9 10 10 11 15 19 24 27 29 32 34 35 35 34 34 37 37 36 37 38 38 38 39 38 37 35 34 32 32 31 31 31 29 28 26 26 26 25 23 22 22 23 22 20 19 19 18 17 16 14 13 11 9 9 8
4 12 13 7 7 7 8 5 6 10 7 5 6 3 1 2 1 3 3 3 2 2 8 7 6 5 4 4 5 6 10 13 11 8 10 15 19 25 29 30 32 33 33 32 30 30 32 33 34 36 38 37 38 38 38 37 35 34 32 31 31 31 31 29 28 27 27 26 25 24 23 23 23 23 22 21 20 20 18 16 14 12 10 9 8 7
7 8 9 6 9 10 8 6 5 8 7 6 5 4 1 4 2 1 2 2 3 5 7 6 7 6 5 5 6 12 14 10 11 13 15 17 21 26 29 30 32 32 32 30 29 29 31 33 34 36 37 37 37 38 38 37 35 34 33 31 31 31 30 29 28 28 27 26 25 23 22 23 23 22 22 21 21 19 18 17 14 11 9 8 7 5
7 5 4 6 13 14 10 6 5 5 6 6 5 6 4 2 1 2 2 1 4 6 6 4 5 4 6 7 9 16 16 10 12 17 20 22 25 29 29 30 30 30 31 30 29 31 33 33 32 31 33 35 37 38 37 37 35 35 33 31 30 30 30 29 29 28 27 26 25 22 21 22 22 22 21 20 20 18 17 16 12 10 9 7 5 3
4 4 4 7 10 14 13 8 7 6 6 7 6 6 6 4 3 4 3 1 2 5 7 4 3 2 5 5 8 14 18 18 17 18 23 25 27 29 29 29 29 29 31 31 30 32 34 34 31 29 31 34 37 38 37 37 36 35 33 30 29 29 29 29 28 27 27 26 23 21 21 21 21 21 20 20 19 17 17 15 12 10 9 5 3 3
6 4 7 8 6 12 14 9 8 5 6 7 4 6 5 4 5 4 2 3 3 4 5 2 3 4 4 3 7 9 10 12 13 14 18 20 21 24 25 26 27 28 30 31 31 33 34 35 35 34 35 35 36 38 38 37 36 34 32 29 29 29 29 28 27 27 25 24 22 22 22 22 21 21 20 19 18 17 18 15 12 10 7 4 3 3
7 5 6 9 6 12 13 8 8 8 5 5 4 6 5 5 5 1 3 6 5 3 4 2 3 4 4 3 7 2 3 8 13 15 18 19 20 22 24 26 27 28 30 31 32 34 34 36 36 36 37 36 37 38 38 37 36 34 32 29 29 29 28 27 26 26 24 23 22 22 23 22 22 21 20 19 18 18 17 14 11 9 7 5 4 4
6 4 4 10 8 10 14 10 9 8 5 4 4 5 5 5 5 1 2 1 3 4 4 2 2 4 2 3 7 5 5 7 10 13 17 20 22 23 24 27 28 30 32 32 32 35 35 37 37 36 37 36 37 38 38 38 37 35 32 30 30 29 28 27 26 25 24 23 23 23 24 23 22 21 20 19 19 19 16 13 10 10 8 7 5 5
6 3 5 12 10 10 17 17 8 7 8 5 6 7 3 3 2 1 2 1 3 4 4 1 3 3 1 2 5 5 4 6 8 10 13 16 22 23 24 28 30 32 34 32 31 34 35 36 37 36 36 36 36 37 38 38 37 34 32 30 31 29 28 27 27 26 24 24 24 24 24 23 21 21 20 20 19 18 15 13 12 11 9 7 7 8
4 2 5 10 11 7 12 14 7 7 8 6 6 8 5 4 2 1 2 2 2 3 3 1 1 2 3 4 3 2 7 9 8 9 10 13 19 22 24 28 31 31 32 31 31 33 35 36 36 36 36 35 34 35 36 37 36 34 31 30 31 29 27 27 27 26 26 26 26 25 24 22 21 21 22 21 19 17 15 13 14 12 9 8 10 11
0 3 1 7 11 5 5 8 7 8 7 4 5 6 4 4 4 3 2 3 3 3 3 1 2 2 5 6 7 10 10 10 11 11 12 14 21 25 26 29 31 30 31 32 33 33 34 35 35 35 35 34 33 34 35 36 35 34 32 31 30 28 26 26 27 28 27 27 26 25 23 22 22 23 22 20 19 17 15 14 14 12 10 10 12 12
1 2 2 5 8 6 4 7 9 10 8 5 5 5 4 3 3 2 1 2 3 3 3 3 2 5 6 4 9 12 11 12 14 14 13 16 23 27 28 31 32 31 32 34 35 33 32 33 33 34 34 33 33 34 35 34 34 34 32 31 29 27 27 27 28 29 28 27 26 24 23 23 24 23 22 20 18 17 15 15 14 12 12 14 14 13
1 1 2 5 6 6 6 6 8 10 9 7 6 5 5 5 4 3 2 1 2 3 4 4 3 6 6 3 6 9 11 13 15 14 12 16 25 28 29 32 33 34 35 35 35 32 30 32 34 34 35 34 34 35 35 33 34 33 31 30 28 27 28 29 29 29 28 26 25 24 24 24 23 22 21 20 19 17 16 16 15 15 15 16 15 13
3 1 1 3 5 6 5 5 8 10 9 7 5 5 5 5 5 5 5 3 1 2 2 4 3 6 6 3 4 6 8 12 16 15 11 15 24 28 29 31 33 34 35 34 33 32 31 33 33 34 35 35 34 35 34 32 32 32 30 28 27 28 29 29 29 28 26 26 25 24 24 23 23 22 21 21 19 18 17 17 17 18 18 18 16 14
3 1 1 1 1 1 1 2 6 9 8 5 4 5 5 5 5 5 5 4 4 3 2 4 2 6 6 4 4 4 6 7 11 12 10 14 21 25 28 31 33 34 32 31 31 31 31 32 32 33 35 35 35 35 34 33 33 32 30 28 28 29 30 30 29 28 27 26 25 24 24 23 22 22 21 20 19 18 18 19 20 21 21 19 16 14
6 2 1 2 3 4 3 3 4 6 7 5 3 4 6 7 6 4 2 2 3 4 4 5 4 7 5 5 4 4 6 4 5 8 12 16 20 24 29 31 33 33 32 30 30 30 31 31 33 34 35 36 37 37 36 35 35 34 31 29 30 31 31 30 29 28 27 26 25 25 24 23 22 22 21 20 19 19 19 21 23 24 22 20 17 13
6 3 3 4 5 7 6 4 5 6 5 4 4 6 7 9 9 5 2 3 2 4 4 6 4 6 6 6 3 5 8 6 7 10 14 18 21 25 28 31 33 33 33 31 30 30 32 31 33 36 36 36 38 38 37 36 36 34 31 30 31 32 32 31 29 28 27 27 26 25 24 23 22 22 21 19 19 20 21 24 26 25 22 19 16 13
2 2 3 5 6 7 6 5 3 5 6 4 6 7 5 7 9 6 4 4 4 3 2 5 5 4 6 6 1 5 7 8 8 11 16 20 22 24 26 29 32 32 30 30 29 30 31 32 34 36 36 36 37 38 37 36 35 33 31 32 33 32 32 31 29 29 29 28 26 25 24 23 22 21 20 18 19 22 25 26 25 23 20 18 14 12
2 4 4 5 8 8 6 6 5 8 8 6 8 8 4 5 8 7 5 5 5 5 3 7 5 4 7 6 6 8 9 9 8 10 16 22 24 24 25 26 27 27 25 26 28 29 31 33 36 38 38 37 38 38 37 35 35 33 32 34 35 34 33 31 29 30 29 28 26 25 24 23 22 21 18 18 22 26 27 25 23 21 19 16 14 12
0 5 5 4 6 7 5 7 8 9 8 8 9 8 5 7 9 8 7 7 7 6 6 6 6 6 8 7 8 9 8 9 11 12 16 21 23 24 25 25 25 24 23 24 28 31 35 37 37 37 38 37 37 36 35 35 36 35 33 34 36 36 34 32 30 30 30 29 26 25 24 22 21 19 17 20 26 28 26 23 21 20 18 17 15 14
2 5 4 2 3 2 3 7 9 9 9 8 8 8 8 9 9 7 6 6 6 6 5 5 6 6 8 6 6 5 2 6 12 16 18 22 25 25 26 25 24 24 24 27 31 36 37 37 35 34 35 37 36 35 35 36 37 37 35 35 37 37 35 33 31 30 30 28 26 25 23 21 21 18 17 24 29 27 24 22 21 20 19 18 17 15
3 5 3 2 3 3 4 4 8 9 10 8 6 5 7 9 6 3 2 3 4 3 2 6 4 5 6 3 1 3 8 11 13 15 18 21 24 26 25 25 26 26 28 32 36 37 35 35 35 35 36 37 37 37 37 38 38 37 35 35 37 38 36 34 32 30 30 27 25 24 22 21 20 17 17 27 30 26 23 22 21 20 19 19 18 16
2 2 2 3 4 2 4 5 7 8 9 8 5 5 8 8 5 3 3 4 5 5 6 7 3 5 5 1 4 5 10 11 10 12 17 20 24 27 27 27 29 30 33 36 38 37 36 37 39 39 38 39 39 40 40 39 39 38 37 36 38 38 36 33 31 30 29 26 24 23 21 21 20 17 21 30 31 25 23 22 21 20 19 18 18 16
1 1 2 2 4 2 4 4 8 8 8 4 4 7 7 5 4 3 2 3 5 7 7 6 6 5 3 5 4 4 6 6 9 15 20 22 24 25 26 28 31 34 37 39 40 40 40 41 41 41 41 41 41 42 41 40 39 39 39 38 38 38 35 32 31 29 27 25 23 22 22 21 19 18 26 32 29 25 24 22 21 20 19 18 17 15
1 2 1 1 4 0 4 4 8 6 4 5 6 6 6 6 7 6 2 4 5 4 4 5 4 2 5 7 8 9 10 13 18 23 26 27 28 26 26 28 31 35 38 40 41 42 42 42 42 41 41 40 40 41 40 38 39 39 38 38 38 37 35 33 32 29 26 25 23 22 22 20 18 22 30 31 28 26 24 22 21 19 18 16 15 13
1 2 1 2 4 2 2 6 6 4 6 6 5 4 4 5 9 7 2 2 2 1 2 3 5 6 8 7 7 10 14 15 16 20 21 24 29 31 30 30 31 35 38 40 41 42 42 41 40 38 38 38 39 39 38 37 38 38 38 38 37 36 35 33 32 29 26 25 23 22 22 19 19 26 30 29 28 27 25 23 21 18 17 15 13 12
2 3 2 2 3 2 3 5 4 6 6 4 3 1 1 3 6 7 2 4 3 2 2 1 4 6 4 1 1 4 9 10 10 13 17 21 25 30 32 33 35 36 38 40 40 39 41 42 39 36 36 37 38 38 38 38 38 38 39 38 37 36 35 33 31 29 27 26 24 23 22 20 22 28 30 30 29 28 25 23 21 18 16 14 13 13
4 3 3 2 2 3 4 3 1 2 3 3 2 0 1 1 4 6 3 4 4 1 3 2 2 5 7 6 5 8 11 10 5 6 14 20 24 29 32 33 34 35 36 37 37 35 38 41 39 34 34 35 37 39 39 39 38 38 38 37 37 36 36 34 33 31 30 28 26 25 23 21 24 29 31 31 31 28 26 24 21 19 17 15 13 14
3 3 4 3 1 2 4 3 2 2 0 3 5 4 3 4 4 5 5 2 5 3 3 5 6 7 8 8 9 12 12 8 1 7 16 22 24 28 31 32 32 33 33 35 36 35 36 39 37 33 33 34 36 38 39 40 39 38 38 37 38 37 36 36 34 32 31 28 25 24 23 21 25 31 33 33 32 29 26 24 21 19 17 14 12 13
6 3 4 5 3 2 4 4 2 2 2 4 7 6 6 5 3 5 5 2 6 3 2 6 8 8 10 15 15 12 9 5 3 11 20 25 27 29 32 32 32 32 32 33 34 34 35 37 36 33 33 34 36 38 39 40 39 38 39 38 37 38 38 37 35 33 30 26 23 24 23 23 28 35 35 33 31 28 25 24 22 20 17 13 11 13
7 5 4 5 3 2 4 3 1 2 1 3 6 8 10 6 2 6 3 6 7 2 1 8 12 10 13 23 20 10 7 7 7 13 22 27 27 28 29 29 29 29 30 31 32 32 33 35 35 34 34 35 36 38 38 39 39 39 39 38 37 39 40 38 34 31 26 22 22 24 23 25 32 36 33 30 28 26 24 23 21 19 16 14 12 14
4 3 3 4 3 3 4 3 0 2 3 4 7 12 12 6 6 5 5 7 5 3 3 9 17 15 17 25 21 13 13 11 7 13 22 25 25 26 26 25 24 23 23 24 26 29 32 34 33 33 34 36 37 38 38 38 39 39 39 38 38 40 40 37 33 27 22 20 22 24 23 26 32 33 30 27 25 24 23 21 19 18 16 13 13 15
2 2 2 2 3 2 3 4 2 2 3 4 10 14 8 4 3 3 5 5 7 7 5 8 20 21 22 26 22 18 17 8 5 15 23 23 25 26 24 24 24 23 23 23 24 27 30 33 32 31 32 35 36 37 38 38 38 39 39 40 41 41 40 35 29 23 20 20 22 24 25 27 31 31 30 27 24 23 22 20 19 17 15 14 14 16
2 2 2 0 1 2 3 4 2 2 3 8 11 8 4 3 4 5 4 6 8 9 6 9 21 26 27 26 18 13 11 6 8 19 24 23 23 22 22 23 23 22 23 23 25 27 28 31 32 31 31 33 35 36 37 38 38 38 38 39 40 38 35 29 23 21 21 22 22 24 27 30 30 30 30 27 24 22 21 20 19 18 16 14 14 17
1 2 1 1 2 2 3 1 2 4 4 9 6 1 1 0 1 1 2 3 5 7 4 8 19 25 29 27 17 12 10 8 13 21 24 24 23 21 21 21 21 21 21 21 23 26 27 29 31 31 31 33 34 36 36 36 36 37 38 39 37 34 30 25 23 23 24 24 25 26 28 30 30 29 28 26 24 22 21 20 19 18 17 15 15 19
2 2 3 3 1 2 3 3 3 3 4 5 3 3 4 7 7 6 6 7 6 5 1 7 14 21 26 24 17 12 11 12 17 23 25 25 24 21 20 20 19 19 19 18 21 24 26 28 29 30 31 32 33 35 36 36 37 38 39 39 38 33 28 25 25 26 26 27 27 27 28 29 29 29 27 25 24 22 21 21 20 19 18 16 16 19
2 2 2 4 1 0 2 1 2 2 3 3 6 9 12 14 13 11 12 12 11 6 0 6 11 18 22 20 16 13 13 16 21 23 22 22 22 20 19 18 18 18 18 19 20 23 26 28 29 30 31 32 33 35 35 35 37 39 40 39 36 31 27 25 25 25 27 28 28 28 29 28 28 28 27 24 22 21 21 21 20 19 18 17 18 19
2 1 2 4 3 2 2 1 3 3 4 5 8 12 15 16 14 13 13 13 13 10 5 3 8 14 18 17 15 14 15 19 22 22 21 20 19 18 17 17 17 17 17 18 18 20 24 28 30 30 31 32 33 34 34 35 37 36 35 32 30 27 25 24 24 26 28 30 29 29 30 29 28 29 27 24 23 24 23 22 20 18 18 17 19 21
2 2 2 4 3 1 2 4 3 3 4 6 8 11 13 15 14 13 13 11 11 11 9 6 4 10 13 13 12 13 15 19 20 19 18 17 16 15 15 15 15 16 16 17 18 20 23 27 30 31 31 31 32 32 33 34 34 30 27 25 24 23 23 23 24 25 27 28 28 30 32 31 29 28 26 25 26 26 24 22 19 18 16 15 18 21
2 2 1 4 3 2 1 3 1 3 6 7 10 12 13 13 13 12 12 10 10 11 11 10 7 4 7 8 9 11 14 16 17 15 15 15 13 12 13 14 15 15 15 16 18 19 21 24 28 30 30 31 31 31 31 32 29 25 24 24 23 22 23 23 24 25 27 28 29 31 32 30 27 25 24 26 27 26 23 20 17 16 15 14 15 18
2 1 2 4 4 1 3 5 4 4 3 4 8 13 14 12 11 12 13 12 12 12 10 9 9 6 3 5 7 8 9 11 14 13 12 12 10 9 11 13 15 15 14 15 16 18 20 21 23 26 28 30 30 29 29 29 26 23 22 23 21 21 23 25 27 29 30 30 31 31 30 27 25 24 25 27 28 26 22 19 18 16 14 13 14 16
2 1 1 4 5 3 5 8 7 6 5 4 9 14 14 12 13 15 16 15 13 12 9 8 8 6 4 3 4 5 6 7 11 12 12 12 11 9 10 12 13 13 13 14 16 18 21 22 23 24 25 27 27 26 26 27 25 22 21 21 20 21 23 26 30 32 32 31 30 28 26 25 24 26 28 29 28 25 21 20 19 17 15 14 14 15
Wind_Direction
171 178 206 201 202 189 186 174 180 223 161 155 163 176 187 190 250 246 252 271 173 141 217 191 191 220 216 224 194 155 158 156 164 169 172 176 177 180 181 184 189 193 198 200 201 202 203 205 207 206 205 201 200 201 202 201 200 204 205 197 190 188 190 193 194 194 194 194 195 199 205 211 218 224 226 226 224 223 222 219 215 215 218 227 241 252
173 203 214 199 190 175 173 158 162 213 224 173 157 199 217 195 239 250 241 272 223 155 250 187 185 240 226 202 178 157 156 162 169 169 176 180 182 185 183 185 189 191 195 198 198 199 200 203 205 205 204 202 201 203 205 204 204 207 207 201 196 194 196 199 200 199 200 201 202 206 210 215 220 221 220 221 220 220 221 219 218 219 224 238 249 253
195 213 192 176 172 148 154 160 165 201 220 217 193 183 226 220 244 273 267 284 106 162 253 190 184 262 261 170 171 177 178 183 180 179 182 183 183 187 187 188 190 191 192 194 195 195 198 201 203 203 204 204 205 206 206 206 206 206 205 202 199 198 199 201 203 204 204 206 210 213 214 215 216 212 211 214 215 218 221 220 218 222 231 242 249 253
205 206 164 166 165 143 151 170 173 195 212 209 195 177 231 243 186 241 273 293 244 169 186 155 189 287 329 81 167 221 238 205 192 190 187 185 184 188 191 192 193 193 192 191 191 193 195 199 202 203 204 204 206 208 206 204 206 205 204 203 200 200 203 204 205 208 208 209 212 210 208 206 204 203 205 208 212 217 219 216 215 221 232 241 250 261
245 197 156 162 172 160 159 175 178 188 209 209 192 181 209 238 206 210 272 306 336 355 108 112 348 307 263 142 205 232 218 179 193 194 187 187 189 190 192 195 196 197 195 192 190 191 194 197 201 204 204 204 205 206 205 205 206 205 205 204 201 202 206 206 207 208 209 209 206 199 195 196 198 200 203 204 207 211 212 212 216 224 237 247 260 272
258 220 163 164 188 180 168 185 185 174 189 224 210 190 193 210 221 236 315 8 31 351 292 141 214 289 265 200 207 202 155 167 180 186 184 187 189 190 194 198 199 198 197 195 192 192 194 196 200 202 202 202 203 203 204 205 206 205 205 204 202 205 207 207 208 209 210 209 201 194 193 195 197 199 201 203 206 207 207 214 222 231 246 259 271 280
227 227 179 172 186 184 185 203 193 168 164 224 217 191 194 206 211 207 30 59 96 252 272 158 180 260 299 243 219 195 175 176 177 193 193 189 190 192 195 198 198 195 193 194 195 195 196 197 199 200 200 200 201 202 203 204 205 206 206 205 205 208 209 209 210 211 213 210 203 198 199 202 202 200 200 201 204 206 209 216 226 239 253 266 276 280
183 205 198 184 182 186 199 204 184 164 155 216 202 172 188 209 205 181 129 146 210 248 302 2 156 212 278 255 223 173 178 190 193 202 201 197 197 197 197 198 197 194 192 193 195 196 198 199 200 199 198 198 199 201 202 203 204 206 206 206 207 209 211 212 213 215 215 211 206 203 205 209 209 206 203 199 198 204 211 217 227 240 252 266 276 277
172 198 202 184 188 196 192 180 157 156 163 214 175 150 178 200 195 173 155 223 255 16 299 298 124 173 269 269 177 154 184 211 209 205 201 199 201 202 201 200 199 197 195 194 194 196 198 199 200 199 197 197 200 201 201 201 203 205 206 207 208 209 212 214 215 218 217 212 210 209 210 209 208 208 205 200 198 203 211 218 228 238 249 264 273 273
177 199 197 178 197 195 166 166 152 158 183 193 156 131 139 165 177 172 173 203 150 111 251 256 165 178 275 254 173 159 201 219 213 205 202 201 201 202 202 201 202 200 197 196 195 196 198 198 198 198 197 198 200 200 199 200 202 205 206 207 208 210 213 215 218 220 216 212 212 215 213 208 206 205 202 198 199 206 213 220 228 237 247 262 269 265
219 195 195 189 195 170 157 178 162 168 181 151 151 155 67 27 117 149 136 126 116 238 251 236 180 179 262 251 188 186 211 207 193 188 198 203 203 201 201 200 201 201 198 196 195 196 197 196 194 195 196 197 198 198 198 200 203 204 205 206 209 212 215 218 219 216 213 213 214 213 211 209 207 204 201 200 203 209 217 223 230 239 249 261 261 251
257 197 192 179 172 159 157 186 182 183 183 148 150 166 200 318 355 69 28 81 168 243 259 231 178 174 226 249 209 215 226 204 180 187 191 197 201 199 199 199 199 199 197 195 194 194 194 193 193 194 195 195 196 196 198 201 204 203 203 205 210 214 216 215 213 208 207 213 215 210 206 208 210 208 205 206 210 216 224 230 236 243 252 259 255 238
250 236 201 166 173 171 163 177 194 200 189 164 154 149 167 249 265 203 219 179 206 242 258 221 161 178 231 242 216 216 226 211 192 196 191 190 193 194 194 195 196 196 194 193 192 192 192 191 191 193 195 197 196 196 199 203 204 203 204 207 209 211 209 207 205 203 204 209 213 208 204 208 211 211 210 212 218 225 232 239 244 249 255 259 255 229
229 277 230 186 178 177 173 173 189 202 185 172 169 158 167 173 175 209 223 192 224 250 263 230 167 230 257 260 227 212 219 216 205 201 195 191 189 188 188 189 192 193 192 193 191 191 192 189 188 193 199 200 197 197 200 203 203 204 205 206 205 203 202 202 202 204 206 207 207 205 205 208 210 210 212 216 222 229 238 245 246 248 253 254 245 221
186 243 219 198 179 174 182 185 171 158 157 170 153 133 154 161 162 193 198 178 202 255 272 217 163 205 202 258 260 228 223 209 192 186 184 185 186 183 183 185 187 188 188 190 190 190 191 191 191 196 201 201 199 198 200 202 204 204 205 203 200 198 199 201 203 204 206 205 203 204 204 207 209 211 214 219 225 232 241 244 242 244 244 237 244 231
191 243 213 192 186 169 178 187 152 130 143 177 125 121 179 186 154 153 180 173 175 218 260 208 193 221 199 288 318 300 159 151 154 155 156 167 176 176 178 183 185 185 185 186 188 189 192 192 193 196 198 200 201 200 199 202 204 204 203 200 198 199 200 203 206 205 205 204 203 202 203 205 208 212 217 221 227 234 238 239 239 242 239 238 252 226
184 266 215 183 205 188 174 176 173 163 161 166 154 169 198 173 146 154 229 165 106 169 235 244 220 281 290 314 345 35 108 133 143 147 152 161 168 172 179 183 184 185 184 185 187 190 192 193 193 194 196 199 201 201 200 203 206 204 202 199 197 200 201 203 207 208 205 204 202 200 202 206 208 213 218 222 229 234 233 231 232 233 236 241 235 201
157 263 240 181 200 212 175 169 188 186 155 140 184 195 158 123 129 109 196 348 58 170 245 280 199 249 221 239 327 23 115 153 155 153 156 159 165 175 183 184 186 187 186 185 186 190 193 194 193 193 196 199 202 201 200 203 207 205 203 201 199 201 203 203 205 206 206 204 202 201 202 206 208 212 218 222 229 233 229 226 227 228 235 233 206 191
153 196 266 187 189 211 170 165 193 207 174 149 175 182 150 150 203 112 162 183 129 178 234 295 254 234 195 211 265 233 185 177 166 160 161 163 171 180 184 186 188 187 186 185 186 191 195 195 195 193 196 199 200 201 200 202 207 207 204 202 202 204 206 205 203 203 205 205 203 204 206 207 209 212 216 220 225 228 226 227 229 229 232 216 191 190
159 138 244 197 181 166 149 170 190 202 194 153 151 171 155 153 174 171 169 168 162 184 199 225 321 261 230 213 193 201 199 177 168 173 176 179 182 183 182 185 188 186 185 187 188 194 197 196 193 191 194 197 198 200 200 201 206 207 204 202 202 206 206 204 203 202 204 204 204 207 207 206 210 213 215 219 223 224 223 227 231 232 227 205 191 193
329 145 177 193 173 155 175 197 190 184 180 168 166 171 163 151 144 155 179 140 140 158 171 174 229 258 255 211 184 196 193 181 182 183 184 187 185 184 182 183 185 185 186 189 191 192 195 195 192 190 193 194 194 199 201 201 204 205 205 203 202 204 204 201 202 203 204 205 205 207 206 205 209 212 215 220 222 222 224 228 230 229 220 205 197 199
211 196 162 175 179 184 196 195 183 175 167 165 174 176 171 165 135 135 212 247 114 149 172 158 196 262 264 216 202 198 183 187 192 185 185 185 181 182 183 183 183 184 187 191 192 190 190 194 192 191 193 191 191 200 203 202 203 203 205 205 201 201 203 202 202 203 204 204 202 203 205 206 209 212 217 220 221 221 224 227 227 224 215 206 201 203
162 149 173 193 194 202 203 180 167 162 149 143 167 184 170 153 131 137 188 229 158 156 161 126 170 262 261 229 236 216 189 193 194 187 182 179 179 180 181 181 183 185 188 188 189 189 190 193 192 193 195 193 193 201 202 200 202 203 204 205 202 201 202 202 202 202 202 202 201 202 206 209 212 215 219 222 223 224 224 227 227 219 210 205 203 205
175 199 254 242 154 148 348 105 140 147 142 144 176 174 159 169 167 152 168 188 175 182 152 114 196 266 276 280 267 216 188 190 194 188 169 164 175 179 178 180 183 185 186 185 186 188 188 189 191 193 197 196 194 199 200 198 199 201 203 204 202 202 202 202 202 201 201 201 202 205 210 214 216 219 221 223 225 228 229 229 222 211 205 204 203 204
187 208 145 148 128 121 90 77 130 168 172 176 185 162 164 173 161 143 131 127 173 208 163 139 208 253 271 310 312 175 154 145 170 174 164 165 173 178 179 181 184 184 184 184 185 185 184 187 190 192 196 198 197 198 199 198 200 201 203 203 200 200 203 203 202 202 201 202 205 208 213 216 218 221 223 223 228 234 232 222 211 203 201 202 202 200
175 205 138 147 161 162 169 174 179 181 171 160 144 149 169 168 159 165 149 119 203 227 157 149 208 254 287 330 0 147 147 139 145 154 165 173 176 179 180 181 182 184 184 183 182 182 184 189 192 192 193 196 197 198 198 198 201 203 204 202 200 201 204 204 203 203 203 204 207 211 214 217 221 223 223 225 231 230 219 207 201 198 198 200 201 196
95 259 181 167 179 178 187 208 189 134 130 141 137 139 161 162 151 140 122 147 188 175 175 214 203 228 286 307 307 174 164 158 158 156 162 172 178 182 181 181 183 184 183 182 180 181 184 189 193 195 195 195 196 198 197 198 202 204 203 201 200 202 206 206 204 203 204 206 209 213 217 220 222 222 223 227 225 213 203 197 196 196 196 198 199 193
26 290 236 184 188 193 191 190 162 128 136 150 138 137 152 145 132 125 150 192 166 125 265 256 189 184 250 249 219 202 182 170 175 172 168 170 175 179 179 180 181 179 179 180 180 182 187 193 197 199 199 198 198 199 199 199 202 205 205 201 199 203 207 208 206 205 206 209 211 214 219 221 220 220 223 221 209 200 196 193 192 194 195 194 194 194
210 273 247 179 190 204 184 165 150 133 141 148 143 149 153 144 144 156 192 204 160 154 235 229 167 197 242 234 213 207 194 180 175 168 164 164 167 172 175 175 174 173 173 174 180 189 196 199 200 199 199 198 197 199 201 201 203 206 206 202 200 203 207 209 209 209 209 211 213 216 220 219 217 220 218 206 199 196 194 191 189 191 193 192 194 199
176 262 254 170 164 165 131 154 147 132 137 148 153 159 156 158 166 172 193 201 170 172 204 168 162 227 250 238 225 221 181 146 149 150 155 161 166 170 171 170 168 169 171 176 187 197 200 200 198 198 199 200 199 200 201 201 203 204 204 202 202 202 204 207 211 212 211 212 214 216 217 215 217 221 210 198 197 195 191 189 189 192 193 194 197 203
190 242 258 101 98 40 41 117 130 130 140 144 138 131 132 141 148 143 163 179 159 140 109 122 151 263 265 238 154 124 132 134 141 150 157 164 168 168 166 165 166 169 177 187 197 200 198 197 199 200 201 202 202 202 201 200 202 203 203 203 203 202 201 206 212 213 213 214 214 214 214 214 219 224 209 197 196 194 191 191 193 195 196 197 200 205
204 249 320 65 91 19 7 81 102 106 115 122 129 132 131 131 137 170 207 190 166 143 103 108 149 254 254 171 85 113 142 145 149 154 155 163 171 170 166 166 170 176 185 195 201 201 197 198 201 202 202 201 201 201 202 203 203 203 204 203 203 202 203 209 213 213 214 215 214 214 215 217 222 222 204 195 194 194 194 195 196 198 200 202 206 210
175 208 297 66 103 356 340 90 105 91 95 129 208 181 153 134 130 155 237 232 174 145 127 150 206 229 189 138 118 126 138 147 166 169 167 170 173 171 169 170 174 183 191 198 203 204 203 202 204 205 203 201 201 201 203 206 206 205 204 204 203 204 206 211 213 214 214 214 214 216 217 222 226 213 196 193 194 196 197 198 201 203 204 208 212 216
227 148 225 125 121 318 329 75 94 96 141 220 240 198 166 155 150 151 199 229 201 159 141 168 195 184 153 159 171 177 179 186 189 186 182 179 173 170 172 176 179 186 195 201 206 208 208 205 205 205 203 201 201 201 202 205 207 206 205 205 205 206 209 212 212 213 214 214 216 218 220 226 221 201 193 193 195 198 200 202 204 205 207 211 215 217
242 114 126 65 106 145 12 68 93 157 215 243 268 245 210 164 148 144 138 253 221 132 107 134 155 171 181 189 193 188 186 186 184 184 185 185 180 174 174 180 185 191 198 204 208 211 210 207 205 203 201 200 200 201 202 203 205 205 205 206 206 208 211 211 210 211 214 215 216 217 222 224 207 193 193 196 198 200 203 205 206 207 208 213 217 217
178 131 127 57 80 130 75 76 141 214 253 297 323 268 202 97 113 118 72 331 326 115 129 227 200 174 152 65 340 179 167 155 154 173 185 190 188 182 181 187 193 199 204 208 211 212 211 211 210 204 201 200 199 201 205 206 206 205 205 205 207 210 210 209 210 214 215 215 217 219 221 216 200 194 196 198 199 202 204 204 205 207 209 213 216 213
183 135 109 56 61 131 110 91 186 270 329 349 0 45 154 162 153 144 154 281 290 179 157 197 193 140 112 97 117 136 137 125 114 189 197 193 193 193 194 198 203 208 211 213 216 215 213 215 215 207 201 201 200 202 207 209 208 206 204 206 208 209 210 211 213 216 217 220 222 221 217 209 199 197 199 200 201 203 203 203 204 207 211 215 215 208
145 127 134 124 69 96 99 83 45 44 165 247 269 277 286 276 230 148 124 238 276 267 182 166 166 152 122 111 126 132 126 112 67 235 211 201 198 198 199 204 208 212 214 214 217 218 215 217 218 211 203 202 202 204 207 209 208 206 207 209 210 210 211 213 213 215 220 223 224 219 215 208 201 199 200 202 203 202 201 202 204 208 212 216 216 207
62 55 102 101 62 64 100 102 119 150 187 250 261 276 319 316 245 132 105 257 266 273 164 157 167 167 143 140 145 139 126 129 236 230 210 204 203 201 201 204 208 212 217 219 220 220 219 219 219 213 205 204 204 205 207 209 210 209 209 211 213 213 213 213 213 217 221 223 223 220 215 206 200 199 200 202 202 200 200 201 204 208 210 214 217 210
38 19 49 74 65 78 98 95 171 185 225 272 267 298 329 341 93 115 147 251 257 269 182 169 173 178 160 151 149 146 157 178 215 216 204 202 205 205 205 208 211 214 219 221 222 221 220 220 218 213 207 207 207 208 209 210 212 212 211 213 216 216 215 214 216 217 218 220 223 221 214 205 200 197 198 202 200 196 199 203 207 208 210 214 216 209
31 29 56 94 95 74 94 98 67 254 266 283 296 314 330 4 73 111 196 239 261 296 279 186 177 178 167 157 158 176 189 190 205 200 194 197 201 203 207 212 215 218 222 225 226 223 219 219 218 215 211 211 211 211 212 214 215 214 212 212 217 218 216 215 215 214 217 220 219 216 213 207 201 197 199 204 200 195 200 208 213 215 218 222 219 208
46 42 39 82 79 57 109 109 37 286 265 312 317 321 341 66 119 205 237 285 302 299 288 190 178 177 173 169 173 184 189 190 195 188 189 194 197 199 204 208 212 216 221 225 227 226 221 218 217 215 212 212 213 213 214 216 218 217 214 215 218 218 215 212 210 214 220 218 213 213 210 203 197 197 201 203 200 199 204 211 218 222 228 232 224 208
122 107 37 45 140 78 76 70 57 205 266 333 336 339 27 110 199 242 297 328 314 307 302 192 180 180 180 180 179 182 188 186 175 181 186 191 194 197 201 204 207 212 216 219 223 223 221 218 218 217 215 215 215 215 216 217 219 219 217 214 212 209 206 206 210 219 222 214 211 212 207 198 195 198 202 201 200 204 210 215 220 225 231 234 223 207
99 132 136 204 182 104 89 89 192 204 273 330 348 61 115 339 248 298 10 0 333 328 318 188 183 183 184 184 181 180 191 188 175 179 185 188 190 195 199 200 204 209 213 218 221 221 220 218 218 218 217 217 216 216 217 217 218 218 216 214 211 205 200 205 215 221 217 209 208 207 201 195 196 200 203 203 202 206 213 220 224 227 232 232 219 207
322 222 161 145 154 136 149 197 233 244 283 328 16 75 58 55 65 71 71 67 45 8 310 186 185 187 188 188 186 184 190 187 179 181 185 186 189 196 199 201 206 209 213 217 217 217 218 218 219 219 218 217 216 216 214 212 216 219 220 220 221 214 205 207 215 215 209 205 205 202 194 192 198 203 204 204 205 209 215 223 227 230 232 229 216 208
307 275 122 110 132 51 71 47 338 324 333 21 52 60 63 67 68 69 71 69 60 50 118 196 192 191 191 192 193 188 185 183 181 183 186 185 188 194 198 202 206 209 211 212 212 213 216 217 219 220 217 214 213 214 213 214 217 221 221 221 220 214 207 209 215 212 205 202 201 197 191 192 200 205 204 203 208 214 221 227 230 232 234 228 215 208
318 353 72 91 103 99 77 327 312 332 348 24 59 68 70 72 70 68 67 63 60 63 76 167 189 190 190 193 197 192 184 182 182 183 184 184 186 192 198 203 207 207 209 211 210 212 216 218 218 218 216 214 213 215 218 219 217 216 218 219 217 213 211 212 214 212 204 200 197 195 194 196 201 202 201 204 210 216 221 226 230 234 236 230 216 208
321 23 77 101 86 98 194 239 279 0 22 39 65 73 72 74 76 73 71 69 67 67 65 72 151 185 186 188 197 195 185 183 184 183 181 182 186 193 199 206 208 205 207 211 210 212 218 219 220 220 219 219 220 221 223 221 215 211 217 223 222 218 215 214 216 214 206 201 199 197 197 199 201 200 202 208 213 216 219 224 230 237 243 238 223 215
314 352 113 125 90 57 179 235 266 53 47 45 63 72 72 75 80 79 77 76 75 72 69 69 82 147 179 186 199 197 185 182 185 184 180 181 186 194 201 206 207 204 204 208 211 215 219 220 222 223 223 224 225 224 224 223 218 215 220 224 224 224 220 215 215 214 208 203 200 199 199 201 203 205 209 212 213 215 221 227 234 243 250 244 229 223
40 86 111 113 113 142 216 206 175 125 84 38 60 73 75 76 81 81 75 70 68 69 70 73 77 90 148 187 200 201 191 184 184 186 187 185 184 192 198 200 202 203 204 208 213 217 220 223 227 229 228 228 226 225 226 227 223 218 220 223 223 223 222 215 211 208 206 203 201 201 202 205 208 213 216 214 212 213 218 225 232 240 246 239 226 223
49 147 179 140 156 206 201 179 156 123 111 86 76 81 80 77 79 77 71 67 69 70 73 81 85 89 101 130 175 208 220 204 190 189 194 193 189 191 195 197 199 200 203 209 215 218 220 223 226 229 231 229 226 225 228 231 227 223 225 225 219 218 220 218 212 207 204 204 205 206 208 212 215 216 215 213 213 214 218 224 228 231 232 225 220 219